星链-30815 (STARLINK-30815 )

导读

STARLINK-30815是美国于2023年10月29日发射的Starlink星链互联网卫星,隶属于SpaceX公司的星链项目。星链项目旨在构建全球卫星互联网星座,为全球提供高速低延迟互联网服务,该卫星入轨后将参与星座组网,进一步扩展星链的全球覆盖能力与服务容量。

Basic Information
目录编号:
58164
目录名称:
STARLINK-30815
国际标识:
2023-166Q
轨道中心:
EARTH
卫星名称:
星链-30815
卫星全名:
星链-30815 (STARLINK-30815 )
卫星状态:
在轨 (已飞行963 天)
发射日期:
2023-10-29 UTC
国别 :
美国 (US)
星等 :
--
Orbit Information
数据来源 国际轨道数据 AOE轨道数据
星历时间 2026-06-17T11:38:52+0800
1天前
查看轨道信息
2026-06-17T00:00:00+0800
1天前
查看轨道信息
半长轴 6848.857km 6848.869km
偏心率 0.0001279 0.0001627
轨道倾角 53.160° 53.157°
近地点辐角 91.993° 82.354°
升交点赤经 117.185° 119.444°
平近点角 268.122° 120.119°
近地点 469.844km 469.617km
远地点 471.596km 471.847km
周期 94.013分钟 94.013分钟
每日圈数 15.31707 15.317028
Detailed Information
固有亮度:
5
最大亮度:
0.3
卫星平台:
Starlink v2.0 mini
覆盖范围:
全球
运营商:
太空探索技术公司
运营商所在国:
美国
制造商(研发单位):
太空探索技术公司
制造商所在国:
美国
使用方式:
暂无
Satellite Introduction
星链(Starlink)计划是由太空探索技术公司(SpaceX)提出的一个巨型低轨卫星互联网星座项目,计划在2019年至2024年间在太空搭建由约1.2万颗卫星组成的“星链”网络,其中1584颗将部署在地球上空550千米处的近地轨道,并从2020年开始工作。该卫星仍在工作。
2D Orbit Map
3D Orbit Map
Orbit Altitude Analysis Chart
Orbit Inclination Analysis Chart
Orbit Comprehensive Analysis Chart
View Comprehensive Chart